| time (UTC) | temp C | wind direction | speed KPH | gust KPH | rain 1hr cm | rain 24hr cm | rain mn cm | humidity % | barometer mb |
| 20260506153228 | 25 | 198 | 0.0 | 11.3 | 0.00 | 0.00 | 0.00 | 39 | 1002.0 |
| 20260506152226 | 25 | 199 | 0.0 | 20.9 | 0.00 | 0.00 | 0.00 | 39 | 1002.0 |
| 20260506151227 | 26 | 210 | 0.0 | 20.9 | 0.00 | 0.00 | 0.00 | 38 | 1002.4 |
| 20260506150226 | 25 | 265 | 1.6 | 14.5 | 0.00 | 0.00 | 0.00 | 38 | 1002.4 |
| 20260506145441 | 26 | 241 | 3.2 | 12.9 | 0.00 | 0.00 | 0.00 | 38 | 1002.4 |
| 20260506144225 | 25 | 186 | 3.2 | 16.1 | 0.00 | 0.00 | 0.00 | 38 | 1002.7 |
| 20260506143226 | 25 | 185 | 0.0 | 25.7 | 0.00 | 0.00 | 0.00 | 38 | 1002.7 |
| 20260506142225 | 25 | 185 | 0.0 | 25.7 | 0.00 | 0.00 | 0.00 | 38 | 1002.7 |
| 20260506141234 | 25 | 236 | 0.0 | 11.3 | 0.00 | 0.00 | 0.00 | 38 | 1003.0 |
| 20260506140225 | 25 | 240 | 3.2 | 14.5 | 0.00 | 0.00 | 0.00 | 37 | 1003.0 |
| 20260506135224 | 25 | 161 | 0.0 | 8.0 | 0.00 | 0.00 | 0.00 | 38 | 1003.0 |
| 20260506134226 | 25 | 167 | 4.8 | 11.3 | 0.00 | 0.00 | 0.00 | 40 | 1003.0 |
| 20260506133224 | 25 | 217 | 0.0 | 16.1 | 0.00 | 0.00 | 0.00 | 40 | 1003.4 |
| 20260506132227 | 25 | 208 | 0.0 | 9.7 | 0.00 | 0.00 | 0.00 | 39 | 1003.7 |
| 20260506131227 | 25 | 211 | 0.0 | 4.8 | 0.00 | 0.00 | 0.00 | 40 | 1004.1 |
| 20260506130225 | 25 | 197 | 0.0 | 11.3 | 0.00 | 0.00 | 0.00 | 38 | 1004.1 |
| 20260506125225 | 26 | 259 | 0.0 | 19.3 | 0.00 | 0.00 | 0.00 | 38 | 1004.1 |
| 20260506124224 | 26 | 238 | 0.0 | 16.1 | 0.00 | 0.00 | 0.00 | 40 | 1004.4 |
| 20260506123227 | 26 | 236 | 0.0 | 9.7 | 0.00 | 0.00 | 0.00 | 40 | 1004.4 |
| 20260506122224 | 25 | 201 | 0.0 | 11.3 | 0.00 | 0.00 | 0.00 | 41 | 1004.4 |
| 20260506121226 | 24 | 177 | 0.0 | 17.7 | 0.00 | 0.00 | 0.00 | 42 | 1004.7 |
| 20260506120225 | 24 | 192 | 0.0 | 14.5 | 0.00 | 0.00 | 0.00 | 42 | 1004.7 |
| 20260506115441 | 24 | 202 | 3.2 | 16.1 | 0.00 | 0.00 | 0.00 | 42 | 1005.1 |
| 20260506114224 | 24 | 221 | 1.6 | 19.3 | 0.00 | 0.00 | 0.00 | 42 | 1005.1 |
| 20260506113225 | 25 | 195 | 0.0 | 19.3 | 0.00 | 0.00 | 0.00 | 42 | 1005.1 |
| 20260506112225 | 25 | 218 | 0.0 | 14.5 | 0.00 | 0.00 | 0.00 | 43 | 1005.1 |
| 20260506111226 | 25 | 238 | 1.6 | 14.5 | 0.00 | 0.00 | 0.00 | 44 | 1005.4 |
| 20260506110227 | 24 | 222 | 0.0 | 17.7 | 0.00 | 0.00 | 0.00 | 45 | 1005.4 |
| 20260506105442 | 24 | 245 | 11.3 | 16.1 | 0.00 | 0.00 | 0.00 | 44 | 1005.8 |
| 20260506104227 | 23 | 196 | 0.0 | 14.5 | 0.00 | 0.00 | 0.00 | 46 | 1005.8 |
| 20260506103226 | 23 | 194 | 0.0 | 4.8 | 0.00 | 0.00 | 0.00 | 46 | 1005.8 |
| 20260506102226 | 23 | 194 | 0.0 | 24.1 | 0.00 | 0.00 | 0.00 | 46 | 1006.1 |
| 20260506101225 | 23 | 207 | 0.0 | 11.3 | 0.00 | 0.00 | 0.00 | 48 | 1006.1 |
| 20260506100440 | 23 | 243 | 0.0 | 11.3 | 0.00 | 0.00 | 0.00 | 46 | 1006.4 |
| 20260506095227 | 22 | 192 | 0.0 | 12.9 | 0.00 | 0.00 | 0.00 | 47 | 1006.4 |
| 20260506094226 | 22 | 192 | 0.0 | 12.9 | 0.00 | 0.00 | 0.00 | 47 | 1006.4 |
| 20260506093224 | 22 | 231 | 6.4 | 8.0 | 0.00 | 0.00 | 0.00 | 49 | 1006.4 |
| 20260506092225 | 22 | 221 | 0.0 | 8.0 | 0.00 | 0.00 | 0.00 | 46 | 1006.4 |
| 20260506091226 | 22 | 224 | 0.0 | 8.0 | 0.00 | 0.00 | 0.00 | 47 | 1006.4 |
| 20260506090228 | 22 | 230 | 0.0 | 12.9 | 0.00 | 0.00 | 0.00 | 46 | 1006.4 |
| 20260506085226 | 21 | 228 | 0.0 | 6.4 | 0.00 | 0.00 | 0.00 | 48 | 1006.8 |
| 20260506084225 | 21 | 227 | 0.0 | 1.6 | 0.00 | 0.00 | 0.00 | 49 | 1006.8 |
| 20260506083228 | 21 | 227 | 0.0 | 1.6 | 0.00 | 0.00 | 0.00 | 50 | 1006.8 |
| 20260506082224 | 20 | 227 | 0.0 | 0.0 | 0.00 | 0.00 | 0.00 | 53 | 1006.8 |
| 20260506081225 | 20 | 229 | 0.0 | 8.0 | 0.00 | 0.00 | 0.00 | 53 | 1006.8 |
| 20260506080440 | 20 | 228 | 0.0 | 11.3 | 0.00 | 0.00 | 0.00 | 56 | 1006.8 |
| 20260506073227 | 19 | 229 | 3.2 | 9.7 | 0.00 | 0.00 | 0.00 | 59 | 1007.1 |
| 20260506072224 | 18 | 216 | 0.0 | 9.7 | 0.00 | 0.00 | 0.00 | 61 | 1007.5 |
| 20260506071228 | 18 | 220 | 0.0 | 8.0 | 0.00 | 0.00 | 0.00 | 64 | 1007.5 |
| 20260506070226 | 18 | 220 | 0.0 | 9.7 | 0.00 | 0.00 | 0.00 | 67 | 1007.5 |
| 20260506062225 | 17 | 203 | 3.2 | 8.0 | 0.00 | 0.00 | 0.00 | 72 | 1007.5 |
| 20260506061441 | 16 | 201 | 3.2 | 8.0 | 0.00 | 0.00 | 0.00 | 73 | 1007.5 |
| 20260506060226 | 16 | 201 | 1.6 | 4.8 | 0.00 | 0.00 | 0.00 | 74 | 1007.5 |
| 20260506051225 | 14 | 200 | 0.0 | 6.4 | 0.00 | 0.00 | 0.00 | 82 | 1007.5 |
| 20260506050226 | 14 | 200 | 1.6 | 9.7 | 0.00 | 0.00 | 0.00 | 83 | 1007.1 |
| 20260506044224 | 13 | 199 | 0.0 | 6.4 | 0.00 | 0.00 | 0.00 | 84 | 1007.1 |
| 20260506043226 | 13 | 199 | 0.0 | 4.8 | 0.00 | 0.00 | 0.00 | 84 | 1007.1 |
| 20260506042441 | 13 | 199 | 0.0 | 4.8 | 0.00 | 0.00 | 0.00 | 83 | 1007.1 |
| 20260506041227 | 13 | 198 | 0.0 | 3.2 | 0.00 | 0.00 | 0.00 | 83 | 1006.8 |
| 20260506040226 | 13 | 198 | 0.0 | 1.6 | 0.00 | 0.00 | 0.00 | 82 | 1006.4 |
| 20260506035226 | 13 | 198 | 0.0 | 1.6 | 0.00 | 0.00 | 0.00 | 81 | 1006.8 |
| 20260506034226 | 13 | 198 | 0.0 | 1.6 | 0.00 | 0.00 | 0.00 | 81 | 1006.8 |
| 20260506033227 | 14 | 198 | 0.0 | 3.2 | 0.00 | 0.00 | 0.00 | 79 | 1006.8 |
| 20260506032226 | 14 | 198 | 0.0 | 0.0 | 0.00 | 0.00 | 0.00 | 78 | 1006.8 |
| 20260506031225 | 14 | 198 | 0.0 | 0.0 | 0.00 | 0.00 | 0.00 | 77 | 1006.8 |
| 20260506030226 | 15 | 198 | 0.0 | 3.2 | 0.00 | 0.00 | 0.00 | 76 | 1006.8 |
| 20260506025226 | 15 | 198 | 0.0 | 1.6 | 0.00 | 0.00 | 0.00 | 77 | 1006.8 |
| 20260506024227 | 15 | 198 | 0.0 | 4.8 | 0.00 | 0.00 | 0.00 | 76 | 1006.8 |
| 20260506023224 | 15 | 198 | 0.0 | 1.6 | 0.00 | 0.00 | 0.00 | 75 | 1006.8 |
| 20260506022224 | 15 | 198 | 0.0 | 1.6 | 0.00 | 0.00 | 0.00 | 73 | 1006.8 |
| 20260506021226 | 16 | 198 | 0.0 | 4.8 | 0.00 | 0.00 | 0.00 | 72 | 1006.8 |
| 20260506020226 | 16 | 198 | 0.0 | 0.0 | 0.00 | 0.00 | 0.00 | 71 | 1006.4 |
| 20260506015226 | 16 | 198 | 0.0 | 1.6 | 0.00 | 0.00 | 0.00 | 70 | 1006.4 |
| 20260506014442 | 16 | 198 | 0.0 | 4.8 | 0.00 | 0.00 | 0.00 | 69 | 1006.4 |
| 20260506013442 | 16 | 198 | 0.0 | 4.8 | 0.00 | 0.00 | 0.00 | 68 | 1006.4 |
| 20260506012226 | 16 | 198 | 0.0 | 4.8 | 0.00 | 0.00 | 0.00 | 66 | 1006.4 |
| 20260506011224 | 17 | 198 | 0.0 | 4.8 | 0.00 | 0.00 | 0.00 | 65 | 1006.4 |
| 20260506010224 | 16 | 197 | 1.6 | 6.4 | 0.00 | 0.00 | 0.00 | 65 | 1006.4 |
| 20260506005224 | 16 | 196 | 0.0 | 3.2 | 0.00 | 0.00 | 0.00 | 65 | 1006.1 |
| 20260506004224 | 16 | 196 | 0.0 | 0.0 | 0.00 | 0.00 | 0.00 | 66 | 1006.1 |
| 20260506003226 | 16 | 196 | 0.0 | 3.2 | 0.00 | 0.00 | 0.00 | 66 | 1005.8 |
| 20260506002226 | 16 | 196 | 0.0 | 3.2 | 0.00 | 0.00 | 0.00 | 66 | 1005.4 |
| 20260506001225 | 16 | 196 | 0.0 | 0.0 | 0.00 | 0.00 | 0.00 | 64 | 1005.4 |
| 20260506000441 | 17 | 196 | 0.0 | 1.6 | 0.00 | 0.00 | 0.00 | 63 | 1005.4 |
| 20260505235225 | 16 | 196 | 0.0 | 0.0 | 0.00 | 0.00 | 0.00 | 63 | 1005.4 |
| 20260505234225 | 16 | 196 | 0.0 | 0.0 | 0.00 | 0.00 | 0.00 | 62 | 1005.1 |
| 20260505233224 | 17 | 196 | 0.0 | 3.2 | 0.00 | 0.00 | 0.00 | 61 | 1005.1 |
| 20260505232224 | 16 | 196 | 0.0 | 0.0 | 0.00 | 0.00 | 0.00 | 61 | 1005.1 |
| 20260505231224 | 16 | 196 | 0.0 | 3.2 | 0.00 | 0.00 | 0.00 | 61 | 1004.7 |
| 20260505230227 | 16 | 196 | 0.0 | 1.6 | 0.00 | 0.00 | 0.00 | 61 | 1004.7 |
| 20260505225224 | 16 | 196 | 0.0 | 0.0 | 0.00 | 0.00 | 0.00 | 60 | 1004.4 |
| 20260505224225 | 16 | 196 | 0.0 | 0.0 | 0.00 | 0.00 | 0.00 | 60 | 1004.4 |
| 20260505223228 | 16 | 196 | 0.0 | 1.6 | 0.00 | 0.00 | 0.00 | 60 | 1004.4 |
| 20260505222224 | 16 | 196 | 0.0 | 4.8 | 0.00 | 0.00 | 0.00 | 59 | 1004.1 |
| 20260505221439 | 17 | 196 | 0.0 | 4.8 | 0.00 | 0.00 | 0.00 | 59 | 1004.1 |
| 20260505220225 | 17 | 196 | 0.0 | 4.8 | 0.00 | 0.00 | 0.00 | 59 | 1004.1 |
| 20260505215224 | 16 | 198 | 0.0 | 0.0 | 0.00 | 0.00 | 0.00 | 60 | 1003.7 |
| 20260505214225 | 16 | 198 | 0.0 | 3.2 | 0.00 | 0.00 | 0.00 | 59 | 1003.7 |
| 20260505213440 | 17 | 198 | 0.0 | 3.2 | 0.00 | 0.00 | 0.00 | 58 | 1003.7 |
| 20260505212227 | 17 | 198 | 0.0 | 8.0 | 0.00 | 0.00 | 0.00 | 58 | 1003.7 |
| 20260505211226 | 17 | 207 | 3.2 | 8.0 | 0.00 | 0.00 | 0.00 | 58 | 1003.4 |
| 20260505210224 | 17 | 190 | 0.0 | 9.7 | 0.00 | 0.00 | 0.00 | 57 | 1003.0 |
| 20260505205227 | 17 | 223 | 0.0 | 17.7 | 0.00 | 0.00 | 0.00 | 56 | 1003.0 |
| 20260505204227 | 17 | 167 | 6.4 | 14.5 | 0.00 | 0.00 | 0.00 | 56 | 1003.0 |
| 20260505203226 | 17 | 198 | 4.8 | 9.7 | 0.00 | 0.00 | 0.00 | 55 | 1003.0 |
| 20260505202228 | 17 | 175 | 3.2 | 11.3 | 0.00 | 0.00 | 0.00 | 55 | 1002.7 |
| 20260505201226 | 18 | 199 | 0.0 | 16.1 | 0.00 | 0.00 | 0.00 | 54 | 1002.7 |
| 20260505200227 | 18 | 188 | 8.0 | 11.3 | 0.00 | 0.00 | 0.00 | 53 | 1002.7 |
| 20260505195441 | 18 | 185 | 4.8 | 6.4 | 0.00 | 0.00 | 0.00 | 52 | 1002.4 |
| 20260505194226 | 18 | 234 | 0.0 | 14.5 | 0.00 | 0.00 | 0.00 | 51 | 1002.7 |
| 20260505193226 | 18 | 236 | 3.2 | 11.3 | 0.00 | 0.00 | 0.00 | 50 | 1002.4 |
| 20260505192229 | 19 | 165 | 1.6 | 11.3 | 0.00 | 0.00 | 0.00 | 49 | 1002.4 |
| 20260505191442 | 19 | 209 | 0.0 | 11.3 | 0.00 | 0.00 | 0.00 | 49 | 1002.7 |
| 20260505190225 | 20 | 217 | 0.0 | 12.9 | 0.00 | 0.00 | 0.00 | 48 | 1002.4 |
| 20260505185226 | 20 | 220 | 0.0 | 11.3 | 0.00 | 0.00 | 0.00 | 47 | 1002.4 |
| 20260505184225 | 20 | 243 | 0.0 | 12.9 | 0.00 | 0.00 | 0.00 | 47 | 1002.4 |
| 20260505183226 | 20 | 194 | 6.4 | 11.3 | 0.00 | 0.00 | 0.00 | 47 | 1002.4 |
| 20260505182227 | 21 | 184 | 0.0 | 12.9 | 0.00 | 0.00 | 0.00 | 46 | 1002.4 |
| 20260505181225 | 21 | 178 | 3.2 | 11.3 | 0.00 | 0.00 | 0.00 | 45 | 1002.4 |
| 20260505180225 | 21 | 214 | 0.0 | 8.0 | 0.00 | 0.00 | 0.00 | 45 | 1002.4 |
| 20260505175225 | 22 | 194 | 0.0 | 17.7 | 0.00 | 0.00 | 0.00 | 44 | 1002.4 |
| 20260505174227 | 22 | 202 | 0.0 | 12.9 | 0.00 | 0.00 | 0.00 | 43 | 1002.4 |
| 20260505173226 | 22 | 193 | 1.6 | 16.1 | 0.00 | 0.00 | 0.00 | 43 | 1002.4 |
| 20260505172225 | 22 | 209 | 0.0 | 9.7 | 0.00 | 0.00 | 0.00 | 43 | 1002.4 |
| 20260505171225 | 23 | 214 | 0.0 | 9.7 | 0.00 | 0.00 | 0.00 | 42 | 1002.4 |
| 20260505170225 | 23 | 197 | 0.0 | 11.3 | 0.00 | 0.00 | 0.00 | 41 | 1002.4 |
| 20260505165440 | 23 | 183 | 0.0 | 9.7 | 0.00 | 0.00 | 0.00 | 39 | 1002.4 |
| 20260505164224 | 23 | 183 | 0.0 | 9.7 | 0.00 | 0.00 | 0.00 | 39 | 1002.4 |
| 20260505163225 | 24 | 214 | 3.2 | 14.5 | 0.00 | 0.00 | 0.00 | 38 | 1002.4 |
| 20260505162225 | 25 | 195 | 0.0 | 9.7 | 0.00 | 0.00 | 0.00 | 36 | 1002.4 |
| 20260505161224 | 25 | 191 | 8.0 | 9.7 | 0.00 | 0.00 | 0.00 | 35 | 1002.7 |
| 20260505160225 | 25 | 197 | 0.0 | 17.7 | 0.00 | 0.00 | 0.00 | 34 | 1002.7 |